Tiempo cada hora Vitoria

Hoy, 20 Octubre, Martes

Tiempo Temperatura Precipitaciones Viento Presión Humedad
00:00 +13°C° 0 mm 4 mps 712 mmHg 80%
01:00 +13°C° 0 mm 4 mps 711 mmHg 83%
02:00 +13°C° 0 mm 4 mps 711 mmHg 85%
03:00 +13°C° 0 mm 4 mps 710 mmHg 87%
04:00 +13°C° 0.6 mm 4 mps 710 mmHg 88%
05:00 +13°C° 0.6 mm 5 mps 710 mmHg 90%
06:00 +13°C° 0 mm 5 mps 710 mmHg 90%
07:00 +13°C° 0.6 mm 5 mps 710 mmHg 90%
08:00 +13°C° 0.6 mm 4 mps 710 mmHg 90%
09:00 +14°C° 0.6 mm 4 mps 711 mmHg 89%
10:00 +14°C° 0.2 mm 5 mps 710 mmHg 88%
11:00 +14°C° 0.2 mm 6 mps 710 mmHg 86%
12:00 +14°C° 0.2 mm 7 mps 710 mmHg 84%
13:00 +15°C° 0.5 mm 8 mps 709 mmHg 81%
14:00 +15°C° 0.5 mm 9 mps 708 mmHg 78%
15:00 +16°C° 0.5 mm 9 mps 707 mmHg 75%
16:00 +16°C° 0.2 mm 10 mps 706 mmHg 75%
17:00 +16°C° 0.2 mm 10 mps 705 mmHg 76%
18:00 +14°C° 0.2 mm 10 mps 704 mmHg 76%
19:00 +16°C° 0.1 mm 10 mps 704 mmHg 75%
20:00 +16°C° 0.1 mm 9 mps 705 mmHg 75%
21:00 +16°C° 0.1 mm 9 mps 705 mmHg 74%
22:00 +15°C° 0.2 mm 9 mps 705 mmHg 76%
23:00 +15°C° 0.2 mm 8 mps 705 mmHg 77%

Mañana, 21 Octubre, Miércoles

Tiempo Temperatura Precipitaciones Viento Presión Humedad
00:00 +15°C° 0.2 mm 8 mps 705 mmHg 79%
01:00 +15°C° 0.6 mm 6 mps 706 mmHg 83%
02:00 +14°C° 0.6 mm 5 mps 706 mmHg 87%
03:00 +14°C° 0.6 mm 4 mps 706 mmHg 91%
04:00 +13°C° 0.1 mm 4 mps 707 mmHg 90%
05:00 +13°C° 0.1 mm 3 mps 707 mmHg 90%
06:00 +12°C° 0.1 mm 3 mps 708 mmHg 90%
07:00 +13°C° 0 mm 3 mps 709 mmHg 84%
08:00 +16°C° 0 mm 3 mps 709 mmHg 78%
09:00 +17°C° 0 mm 3 mps 710 mmHg 72%
10:00 +18°C° 0 mm 4 mps 710 mmHg 65%
11:00 +19°C° 0 mm 5 mps 710 mmHg 58%
12:00 +21°C° 0 mm 6 mps 711 mmHg 51%
13:00 +21°C° 0 mm 6 mps 711 mmHg 50%
14:00 +21°C° 0 mm 6 mps 711 mmHg 48%
15:00 +22°C° 0 mm 6 mps 711 mmHg 47%
16:00 +20°C° 0 mm 5 mps 711 mmHg 51%
17:00 +19°C° 0 mm 4 mps 711 mmHg 55%
18:00 +17°C° 0 mm 4 mps 711 mmHg 59%
19:00 +17°C° 0 mm 3 mps 711 mmHg 62%
20:00 +16°C° 0 mm 3 mps 711 mmHg 65%
21:00 +16°C° 0 mm 2 mps 712 mmHg 68%
22:00 +15°C° 0 mm 2 mps 712 mmHg 72%
23:00 +14°C° 0 mm 2 mps 712 mmHg 75%

Pasado mañana, 22 Octubre, Jueves

Tiempo Temperatura Precipitaciones Viento Presión Humedad
00:00 +14°C° 0 mm 2 mps 712 mmHg 79%
01:00 +14°C° 0 mm 2 mps 712 mmHg 79%
02:00 +14°C° 0 mm 2 mps 712 mmHg 80%
03:00 +14°C° 0 mm 2 mps 712 mmHg 81%
04:00 +13°C° 0.1 mm 1 mps 713 mmHg 83%
05:00 +13°C° 0.1 mm 1 mps 713 mmHg 86%
06:00 +12°C° 0.1 mm 1 mps 713 mmHg 89%
07:00 +14°C° 0 mm 1 mps 713 mmHg 84%
08:00 +15°C° 0 mm 2 mps 714 mmHg 78%
09:00 +16°C° 0 mm 2 mps 714 mmHg 73%
10:00 +18°C° 0 mm 2 mps 714 mmHg 67%
11:00 +19°C° 0 mm 2 mps 714 mmHg 61%
12:00 +20°C° 0 mm 3 mps 715 mmHg 55%
13:00 +20°C° 0.3 mm 3 mps 714 mmHg 56%
14:00 +20°C° 0.3 mm 2 mps 714 mmHg 57%
15:00 +20°C° 0.3 mm 2 mps 714 mmHg 57%
16:00 +19°C° 0.5 mm 2 mps 714 mmHg 65%
17:00 +18°C° 0.5 mm 1 mps 714 mmHg 72%
18:00 +15°C° 0.5 mm 1 mps 714 mmHg 79%
19:00 +15°C° 0.1 mm 1 mps 714 mmHg 82%
20:00 +14°C° 0.1 mm 1 mps 714 mmHg 85%
21:00 +13°C° 0.1 mm 1 mps 715 mmHg 87%
22:00 +13°C° 0.1 mm 1 mps 715 mmHg 88%
23:00 +13°C° 0.1 mm 1 mps 715 mmHg 89%

23 Octubre, Viernes

Tiempo Temperatura Precipitaciones Viento Presión Humedad
00:00 +13°C° 0.1 mm 1 mps 715 mmHg 90%
01:00 +12°C° 0 mm 1 mps 715 mmHg 91%
02:00 +12°C° 0 mm 1 mps 715 mmHg 91%
03:00 +12°C° 0 mm 1 mps 715 mmHg 92%
04:00 +12°C° 0 mm 1 mps 715 mmHg 91%
05:00 +11°C° 0 mm 1 mps 716 mmHg 91%
06:00 +11°C° 0 mm 1 mps 716 mmHg 91%
07:00 +12°C° 0 mm 2 mps 716 mmHg 84%
08:00 +14°C° 0 mm 2 mps 717 mmHg 78%
09:00 +15°C° 0 mm 2 mps 718 mmHg 71%
10:00 +16°C° 0 mm 3 mps 718 mmHg 64%
11:00 +17°C° 0 mm 4 mps 718 mmHg 57%
12:00 +17°C° 0 mm 5 mps 718 mmHg 50%
13:00 +18°C° 0 mm 4 mps 718 mmHg 51%
14:00 +18°C° 0 mm 4 mps 718 mmHg 52%
15:00 +18°C° 0 mm 4 mps 719 mmHg 53%
16:00 +16°C° 0 mm 3 mps 719 mmHg 63%
17:00 +14°C° 0 mm 2 mps 719 mmHg 72%
18:00 +13°C° 0 mm 1 mps 719 mmHg 81%
19:00 +12°C° 0 mm 1 mps 719 mmHg 83%
20:00 +11°C° 0 mm 0 mps 720 mmHg 85%
21:00 +10°C° 0 mm 0 mps 720 mmHg 87%
22:00 +10°C° 0 mm 0 mps 720 mmHg 87%
23:00 +10°C° 0 mm 0 mps 720 mmHg 87%

24 Octubre, Sábado

Tiempo Temperatura Precipitaciones Viento Presión Humedad
00:00 +9°C° 0 mm 0 mps 720 mmHg 88%
01:00 +9°C° 0 mm 0 mps 720 mmHg 88%
02:00 +10°C° 0 mm 1 mps 720 mmHg 88%
03:00 +10°C° 0 mm 1 mps 720 mmHg 88%
04:00 +9°C° 0 mm 1 mps 720 mmHg 88%
05:00 +9°C° 0 mm 1 mps 720 mmHg 88%
06:00 +9°C° 0 mm 1 mps 720 mmHg 87%
07:00 +11°C° 0 mm 1 mps 720 mmHg 81%
08:00 +12°C° 0 mm 1 mps 720 mmHg 74%
09:00 +14°C° 0 mm 1 mps 720 mmHg 68%
10:00 +15°C° 0 mm 2 mps 720 mmHg 62%
11:00 +17°C° 0 mm 2 mps 720 mmHg 56%
12:00 +18°C° 0 mm 3 mps 720 mmHg 50%
13:00 +19°C° 0 mm 3 mps 719 mmHg 50%
14:00 +19°C° 0 mm 3 mps 719 mmHg 49%
15:00 +19°C° 0 mm 3 mps 718 mmHg 48%
16:00 +17°C° 0 mm 3 mps 718 mmHg 55%
17:00 +15°C° 0 mm 2 mps 717 mmHg 61%
18:00 +13°C° 0 mm 2 mps 717 mmHg 67%
19:00 +13°C° 0 mm 2 mps 717 mmHg 68%
20:00 +12°C° 0 mm 2 mps 717 mmHg 69%
21:00 +12°C° 0 mm 2 mps 717 mmHg 70%
22:00 +12°C° 0 mm 2 mps 716 mmHg 71%
23:00 +12°C° 0 mm 2 mps 716 mmHg 72%

25 Octubre, Domingo

Tiempo Temperatura Precipitaciones Viento Presión Humedad
00:00 +10°C° 0 mm 3 mps 716 mmHg 73%
01:00 +10°C° 0 mm 3 mps 716 mmHg 75%
02:00 +10°C° 0 mm 3 mps 715 mmHg 77%
03:00 +10°C° 0 mm 3 mps 715 mmHg 79%
04:00 +10°C° 0 mm 3 mps 714 mmHg 80%
05:00 +10°C° 0 mm 3 mps 714 mmHg 81%
06:00 +9°C° 0 mm 3 mps 714 mmHg 82%
07:00 +11°C° 0 mm 4 mps 714 mmHg 76%
08:00 +12°C° 0 mm 5 mps 714 mmHg 71%
09:00 +13°C° 0 mm 6 mps 714 mmHg 66%
10:00 +13°C° 0.1 mm 5 mps 714 mmHg 66%
11:00 +13°C° 0.1 mm 4 mps 715 mmHg 67%
12:00 +15°C° 0.1 mm 2 mps 715 mmHg 67%
13:00 +13°C° 2.2 mm 2 mps 715 mmHg 75%
14:00 +12°C° 2.2 mm 2 mps 714 mmHg 83%
15:00 +9°C° 2.2 mm 2 mps 714 mmHg 92%
16:00 +9°C° 0.7 mm 2 mps 715 mmHg 90%
17:00 +8°C° 0.7 mm 2 mps 715 mmHg 89%
18:00 +9°C° 0.7 mm 1 mps 716 mmHg 87%
19:00 +8°C° 0 mm 1 mps 716 mmHg 89%
20:00 +8°C° 0 mm 1 mps 717 mmHg 90%
21:00 +7°C° 0 mm 1 mps 717 mmHg 92%
22:00 +7°C° 0 mm 1 mps 717 mmHg 92%
23:00 +7°C° 0 mm 1 mps 718 mmHg 92%

26 Octubre, Lunes

Tiempo Temperatura Precipitaciones Viento Presión Humedad
00:00 +6°C° 0 mm 1 mps 718 mmHg 92%
01:00 +6°C° 0 mm 1 mps 718 mmHg 91%
02:00 +6°C° 0 mm 1 mps 718 mmHg 91%
03:00 +6°C° 0 mm 1 mps 718 mmHg 90%
04:00 +6°C° 0 mm 1 mps 719 mmHg 89%
05:00 +5°C° 0 mm 2 mps 719 mmHg 88%
06:00 +5°C° 0 mm 2 mps 719 mmHg 88%
07:00 +6°C° 0.1 mm 2 mps 720 mmHg 86%
08:00 +7°C° 0.1 mm 2 mps 720 mmHg 84%
09:00 +7°C° 0.1 mm 2 mps 721 mmHg 82%
10:00 +8°C° 0.1 mm 2 mps 721 mmHg 79%
11:00 +9°C° 0.1 mm 3 mps 721 mmHg 76%
12:00 +10°C° 0.1 mm 3 mps 721 mmHg 74%
13:00 +10°C° 0 mm 3 mps 721 mmHg 72%
14:00 +10°C° 0 mm 3 mps 721 mmHg 70%
15:00 +11°C° 0 mm 3 mps 721 mmHg 67%
16:00 +10°C° 0 mm 3 mps 721 mmHg 72%
17:00 +9°C° 0 mm 2 mps 721 mmHg 77%
18:00 +9°C° 0 mm 1 mps 722 mmHg 82%
19:00 +9°C° 0 mm 1 mps 722 mmHg 83%
20:00 +8°C° 0 mm 1 mps 722 mmHg 85%
21:00 +8°C° 0 mm 1 mps 722 mmHg 86%
22:00 +8°C° 0 mm 1 mps 722 mmHg 86%
23:00 +8°C° 0 mm 1 mps 722 mmHg 86%
Mostrar más

Necesitamos Su Consentimiento

Meteoprog y nuestros Proveedores de Servicios pueden almacenar y acceder a sus datos personales como cookies, identificadores de dispositivo u otras tecnologías similares de su dispositivo y procesar dichos datos para personalizar contenido y anuncios, además de ofrecer funciones de redes sociales y analizar el tráfico.

  • Almacenar y/o acceder a información en su dispositivo

    Se puede almacenar o acceder a cookies, identificadores de dispositivo u otra información de su dispositivo para los fines anteriormente indicados.

  • Anuncios y contenido personalizados, medición de anuncios y contenido, percepciones del público, y desarrollo de productos

    Los anuncios y el contenido pueden personalizarse en base a su perfil. Se pueden añadir más datos para personalizar mejor los anuncios y contenidos. Se puede medir el rendimiento de los anuncios y contenidos. Se puede obtener la percepción sobre el público que ha visto los anuncios y contenidos. Dichos datos pueden usarse para desarrollar o mejorar la experiencia del usuario, sistemas y software.

Al hacer clic en ‘Estoy De Acuerdo’ usted permitirá el uso de las cookies, identificadores de dispositivo, balizas web u otras tecnologías similares indicadas. Su configuración puede cambiarse desde el navegador de su dispositivo.

Para ciertos fines, los intereses legítimos pueden ser considerados por encima del consentimiento. Puede leer más sobre ello en nuestra Política de Privacidad y Cookies.